[[{"header":{"parameterUnit":"m.s-1","parameterCategory":2,"la1":30.2991,"la2":30.254,"lo1":-89.0895,"lo2":-89.0444,"dy":0.0017,"dx":0.0017,"nx":28,"ny":28,"refTime":"2024-05-06T21:00:00:Z","depth":"0","parameterNumber":2,"parameterNumberName":"U-component_of_CURRENTS"},"data":[0,0,0,0,0,0,0,0,0,0,0,0,0,0,0,0,0,0,0,0,0,0,0,0,0,0,0,0,0,0,0,0,0,0,0,0,0,0,0,0,0,0,0,0,0,0,0,0,0,0,0,0,0,0,0,0,0,0,0.2492,0.2492,0,0.2481,0.2481,0.248,0.2455,0.2455,0.2455,0.2454,0.2436,0.2436,0.2436,0,0,0,0,0,0,0,0,0,0,0,0,0,0.2518,0.2518,0.2492,0.2492,0.2492,0.2481,0.2481,0.248,0.2455,0.2455,0.2455,0.2454,0.2436,0.2436,0.2435,0,0,0,0,0,0,0,0,0,0,0,0,0,0.2505,0.2517,0.2492,0.2479,0.2478,0.2481,0.2481,0.248,0.2456,0.2455,0.2454,0.2454,0.2436,0.2436,0.2435,0.2445,0,0,0.2435,0.2435,0,0,0,0,0,0,0,0,0.2506,0.2504,0.2481,0.248,0.2479,0.247,0.2483,0.2469,0.2456,0.2462,0.2454,0.2454,0.2448,0.2447,0.2444,0.2444,0.2443,0.2435,0.2435,0.2434,0.2434,0,0,0,0,0,0,0,0.2507,0.2505,0.2486,0.2481,0.248,0.2484,0.2481,0.2481,0.2457,0.2462,0.246,0.2462,0.2447,0.2444,0.2443,0.2443,0.2435,0.2435,0.2434,0.2434,0.2485,0.2487,0,0,0,0,0,0,0.2511,0.2505,0.2486,0.2485,0.2493,0.2484,0.2481,0.2472,0.2457,0.2455,0.2462,0.2461,0.2445,0.2443,0.2442,0.2473,0.2434,0.2434,0.2434,0.2484,0.2486,0.2487,0,0,0,0,0,0,0.2511,0.2509,0.2486,0.2497,0.2495,0.2484,0.2475,0.2472,0.2472,0.2458,0.2455,0.2466,0.2444,0.2443,0.2453,0.2471,0.2434,0.2434,0.2482,0.2484,0.2487,0.252,0,0,0,0,0,0,0.2512,0.2509,0.2509,0.2497,0.2494,0.2496,0.2476,0.2473,0.2475,0.2473,0.246,0.2457,0.2444,0.2453,0.2452,0.247,0.2434,0.248,0.2483,0.2486,0.2517,0.2523,0.2528,0,0,0,0,0,0.2513,0.2513,0.2508,0.2506,0.2492,0.2497,0.2496,0.2485,0.2476,0.2482,0.2476,0.2458,0.2471,0.2454,0.2453,0.2471,0.2479,0.2482,0.2486,0.2515,0.2522,0.2528,0,0,0,0,0,0,0.2526,0.2511,0.2505,0.2501,0.2503,0.2493,0.2497,0.2492,0.2491,0.2488,0.2472,0.247,0.249,0.248,0.2462,0.2497,0.2474,0.2478,0.2497,0.2504,0.2509,0.2523,0.2434,0,0,0,0,0,0.253,0.2523,0.2517,0.2516,0.2516,0.2509,0.251,0.2505,0.2502,0.25,0.2492,0.2492,0.2503,0.2502,0.2508,0.2521,0.2528,0.2535,0.2541,0.2546,0.2559,0.2594,0.2603,0.2498,0.2498,0.2498,0,0,0.2534,0.2527,0.2522,0.2519,0.2516,0.2523,0.2508,0.2513,0.2521,0.25,0.2507,0.2513,0.2514,0.2532,0.254,0.2523,0.2579,0.255,0.2554,0.2564,0.2598,0.2608,0.2617,0.2501,0.25,0.25,0,0,0.2543,0.2534,0.2534,0.2538,0.254,0.2538,0.2543,0.2539,0.2538,0.255,0.2545,0.2566,0.2565,0.2578,0.2582,0.2627,0.2613,0.2625,0.2656,0.2689,0.2698,0.2706,0.2722,0.2731,0.2621,0.2621,0.2621,0,0.2552,0.254,0.2538,0.2545,0.2545,0.2547,0.2551,0.256,0.2561,0.2573,0.2558,0.2595,0.2592,0.2631,0.2645,0.264,0.2648,0.2624,0.2696,0.2704,0.2711,0.2726,0.2735,0.2623,0.2623,0.2622,0.2622,0,0.2557,0.2553,0.2556,0.2558,0.2569,0.2569,0.2582,0.2598,0.2598,0.2609,0.2648,0.2652,0.2676,0.2681,0.2672,0.2728,0.2714,0.2703,0.2675,0.2724,0.2736,0.2745,0.2626,0.2625,0.2624,0.2624,0,0,0.255,0.2554,0.2554,0.2552,0.2567,0.2572,0.2603,0.2627,0.2652,0.267,0.2701,0.2734,0.2746,0.2755,0.2755,0.2781,0.2835,0.2763,0.2763,0.2772,0.29,0.2845,0.2849,0.2832,0.2834,0.2836,0.2884,0,0.2546,0.2547,0.2557,0.2564,0.256,0.2583,0.2609,0.2644,0.2672,0.2709,0.2742,0.2773,0.2771,0.2781,0.2815,0.2836,0.2863,0.2823,0.2857,0.2858,0.2799,0.286,0.2709,0.2735,0.2892,0.2894,0.2895,0,0.2535,0.2535,0.2534,0.2549,0.2552,0.2569,0.2611,0.2639,0.2711,0.2739,0.2796,0.2816,0.2877,0.2853,0.293,0.2903,0.2911,0.2919,0.2921,0.2867,0.2822,0.2715,0.2746,0.268,0.2909,0.2908,0.2907,0,0.2502,0.2515,0.2506,0.2509,0.2538,0.2554,0.2581,0.2649,0.2682,0.2766,0.2798,0.2873,0.2906,0.2946,0.2974,0.2954,0.3043,0.3014,0.2974,0.2969,0.2847,0.2828,0.2814,0.3067,0.3067,0.3067,0.3067,0,0.2475,0.2467,0.249,0.2484,0.2494,0.2532,0.2565,0.2616,0.2692,0.2734,0.281,0.2855,0.2931,0.2982,0.2999,0.3024,0.3069,0.2999,0.2988,0.2853,0.2836,0.2777,0.2749,0.3069,0.3068,0.3068,0.3067,0,0.2429,0.244,0.2431,0.246,0.2473,0.2484,0.2546,0.2574,0.2661,0.2719,0.2744,0.286,0.2936,0.2996,0.3065,0.3049,0.2974,0.3066,0.2897,0.2866,0.2747,0.2726,0.2569,0.2497,0.3029,0.3028,0.3027,0,0.2399,0.2387,0.2407,0.2404,0.2413,0.2441,0.2458,0.2549,0.2582,0.2711,0.2727,0.2838,0.2888,0.2987,0.2991,0.3018,0.2937,0.2883,0.2822,0.2738,0.2708,0.2566,0.2507,0.2671,0.2668,0.2665,0.2662,0,0.2342,0.2348,0.2344,0.2341,0.2351,0.2363,0.2399,0.2426,0.2526,0.2576,0.2655,0.2712,0.2817,0.2796,0.2845,0.284,0.2711,0.2823,0.278,0.2474,0.2272,0.2197,0.264,0.2636,0.2639,0.264,0.2642,0.2643,0.2296,0.2279,0.2276,0.2261,0.227,0.2266,0.2248,0.2298,0.2337,0.2388,0.252,0.2552,0.261,0.2663,0.2641,0.2529,0.2531,0.2439,0.2436,0.2311,0.2188,0.2572,0.253,0.2532,0.2534,0.2535,0.2536,0,0.222,0.2206,0.2193,0.2163,0.2128,0.2169,0.2179,0.2147,0.2139,0.2237,0.2286,0.232,0.2291,0.2327,0.2259,0.2153,0.2026,0.21,0.1876,0.1854,0.2239,0.2173,0.1995,0.1995,0.1995,0.1995,0.1995,0.1995,0.2182,0.2134,0.2117,0.2024,0.2,0.1929,0.1912,0.1895,0.1931,0.1933,0.1947,0.201,0.2082,0.2032,0.1911,0.1871,0.1719,0.1587,0.164,0.1935,0.1966,0.1996,0.1928,0.1701,0.1701,0.1125,0.1121,0.1118]},{"header":{"parameterUnit":"m.s-1","parameterCategory":2,"la1":30.2991,"la2":30.254,"lo1":-89.0895,"lo2":-89.0444,"dy":0.0017,"dx":0.0017,"nx":28,"ny":28,"refTime":"2024-05-06T21:00:00:Z","depth":"0","parameterNumber":3,"parameterNumberName":"V-component_of_CURRENTS"},"data":[0,0,0,0,0,0,0,0,0,0,0,0,0,0,0,0,0,0,0,0,0,0,0,0,0,0,0,0,0,0,0,0,0,0,0,0,0,0,0,0,0,0,0,0,0,0,0,0,0,0,0,0,0,0,0,0,0,0,0.0395,0.0395,0,0.0367,0.0366,0.0366,0.0344,0.0344,0.0344,0.0344,0.0289,0.0288,0.0287,0,0,0,0,0,0,0,0,0,0,0,0,0,0.0387,0.0388,0.0395,0.0395,0.0395,0.0367,0.0366,0.0366,0.0344,0.0344,0.0344,0.0344,0.029,0.0288,0.0287,0,0,0,0,0,0,0,0,0,0,0,0,0,0.0377,0.0388,0.0395,0.0381,0.0379,0.0367,0.0366,0.0366,0.0344,0.0344,0.0344,0.0343,0.029,0.0288,0.0286,0.0279,0,0,0.028,0.028,0,0,0,0,0,0,0,0,0.0378,0.0378,0.0383,0.0382,0.038,0.0359,0.0343,0.0335,0.0344,0.0357,0.0344,0.0343,0.0311,0.0307,0.0302,0.0276,0.0274,0.028,0.0279,0.0278,0.0278,0,0,0,0,0,0,0,0.0379,0.0379,0.0383,0.0383,0.0381,0.0361,0.036,0.0342,0.0335,0.0356,0.0354,0.0352,0.031,0.0304,0.03,0.0273,0.028,0.0279,0.0277,0.0277,0.0249,0.0249,0,0,0,0,0,0,0.0386,0.038,0.0384,0.0382,0.0379,0.0361,0.036,0.0366,0.0335,0.0331,0.0352,0.0351,0.0307,0.0303,0.0298,0.0304,0.0278,0.0276,0.0275,0.0249,0.0249,0.025,0,0,0,0,0,0,0.0386,0.0387,0.0385,0.038,0.0379,0.0362,0.0368,0.0365,0.0361,0.0333,0.0328,0.0352,0.0307,0.0301,0.0293,0.0301,0.0275,0.0274,0.0248,0.0249,0.0249,0.0305,0,0,0,0,0,0,0.0386,0.0388,0.0394,0.0381,0.0379,0.0385,0.0369,0.0365,0.036,0.0359,0.0331,0.0326,0.0306,0.0296,0.0291,0.0298,0.0272,0.0247,0.0248,0.0249,0.0303,0.0308,0.0312,0,0,0,0,0,0.0386,0.0399,0.0394,0.0395,0.0389,0.0385,0.0383,0.0369,0.0361,0.0364,0.0348,0.0327,0.0297,0.0295,0.0289,0.0296,0.0247,0.0248,0.0249,0.0301,0.0307,0.0312,0,0,0,0,0,0,0.0396,0.0398,0.0392,0.0404,0.0397,0.0382,0.0383,0.0373,0.0363,0.0362,0.0333,0.0327,0.032,0.0302,0.03,0.029,0.0268,0.0268,0.0309,0.0314,0.0319,0.0335,0.0271,0,0,0,0,0,0.0402,0.0414,0.0406,0.0415,0.0414,0.0399,0.0395,0.0388,0.0377,0.0372,0.0352,0.0333,0.0319,0.0313,0.0294,0.0292,0.0271,0.0292,0.0296,0.03,0.0309,0.0288,0.0292,0.0253,0.0253,0.0253,0,0,0.0407,0.041,0.0415,0.0418,0.0411,0.042,0.0396,0.0397,0.0404,0.0367,0.0369,0.0346,0.0321,0.0318,0.0314,0.0305,0.03,0.0302,0.0305,0.0312,0.0289,0.0293,0.0296,0.0253,0.0253,0.0253,0,0,0.0426,0.0427,0.0443,0.0443,0.0441,0.0436,0.0439,0.0427,0.0421,0.0419,0.0396,0.0384,0.0359,0.0348,0.0339,0.0357,0.0322,0.0347,0.0386,0.0366,0.0369,0.0371,0.0349,0.0349,0.0353,0.0353,0.0353,0,0.043,0.0454,0.0445,0.0461,0.0468,0.0448,0.0467,0.0459,0.0446,0.0449,0.0427,0.0401,0.0375,0.038,0.0385,0.0368,0.0349,0.0369,0.0372,0.0374,0.0376,0.0352,0.0352,0.0356,0.0355,0.0355,0.0355,0,0.0463,0.0481,0.049,0.0509,0.0513,0.0526,0.0519,0.0518,0.0506,0.0502,0.0496,0.046,0.0448,0.0434,0.0415,0.0418,0.0397,0.0378,0.0361,0.0383,0.0357,0.0355,0.036,0.0359,0.0358,0.0357,0,0,0.0482,0.0509,0.0514,0.0534,0.0542,0.0553,0.0564,0.0576,0.0599,0.0567,0.0584,0.055,0.053,0.0518,0.0487,0.0468,0.0457,0.0433,0.043,0.0415,0.041,0.0404,0.0401,0.0436,0.0436,0.0436,0.0387,0,0.0512,0.0557,0.0561,0.0604,0.0627,0.0619,0.0637,0.0644,0.0643,0.0653,0.0612,0.0613,0.0563,0.0558,0.0531,0.048,0.0455,0.0472,0.0387,0.0384,0.038,0.04,0.0448,0.0408,0.0385,0.0384,0.0384,0,0.0547,0.0575,0.0623,0.0664,0.0673,0.0695,0.0731,0.0748,0.0754,0.0752,0.0741,0.0705,0.0677,0.0624,0.0546,0.0559,0.0491,0.0441,0.0438,0.0414,0.0376,0.0381,0.0405,0.035,0.0381,0.0381,0.0382,0,0.0575,0.0621,0.0664,0.0677,0.0715,0.0735,0.0759,0.0781,0.0813,0.082,0.0835,0.079,0.0773,0.0682,0.0576,0.056,0.0485,0.0449,0.0376,0.0374,0.039,0.039,0.0357,0.0387,0.0388,0.0388,0.0388,0,0.0612,0.0647,0.0683,0.0708,0.0768,0.0779,0.0846,0.0861,0.0896,0.0954,0.0892,0.0915,0.0786,0.0722,0.0608,0.0498,0.0508,0.0391,0.0366,0.041,0.0412,0.0343,0.0301,0.0386,0.0386,0.0387,0.0387,0,0.0638,0.0659,0.0713,0.0762,0.0783,0.0829,0.0905,0.0957,0.0979,0.1046,0.1047,0.1013,0.0941,0.0803,0.0668,0.0555,0.0409,0.0392,0.0452,0.0435,0.0311,0.027,0.0217,0.0175,0.0304,0.0304,0.0304,0,0.0655,0.0684,0.0753,0.0794,0.082,0.089,0.0945,0.0995,0.1061,0.1115,0.1153,0.1101,0.1092,0.089,0.0697,0.0507,0.0417,0.0399,0.0372,0.0321,0.0257,0.0244,0.0211,0.041,0.0411,0.0411,0.0412,0,0.0687,0.0708,0.0754,0.0839,0.0903,0.0986,0.1071,0.1133,0.1204,0.1264,0.1334,0.1328,0.1157,0.1009,0.0743,0.0596,0.0383,0.0401,0.0338,0.0334,0.0329,0.0272,0.0419,0.0416,0.0415,0.0415,0.0415,0.0415,0.0707,0.0745,0.0805,0.0888,0.0967,0.1072,0.1146,0.1245,0.1358,0.1461,0.1467,0.1499,0.1291,0.0952,0.0744,0.0433,0.0411,0.0339,0.0291,0.0281,0.0254,0.0409,0.0383,0.0383,0.0382,0.0382,0.0382,0,0.0731,0.0779,0.0853,0.0952,0.104,0.1081,0.1223,0.1306,0.1442,0.156,0.1631,0.1595,0.1328,0.1023,0.0622,0.039,0.0293,0.0256,0.0255,0.022,0.0357,0.0376,0.0362,0.0362,0.0362,0.0362,0.0362,0.0362,0.0746,0.0811,0.0851,0.0991,0.1065,0.1187,0.1268,0.1397,0.1515,0.1674,0.1747,0.1786,0.1617,0.092,0.047,0.0334,0.0178,0.0146,0.0042,0.0149,0.0154,0.0159,0.0168,0.011,0.011,-0.0042,-0.0043,-0.0045]}],[{"header":{"parameterUnit":"m.s-1","parameterCategory":2,"la1":30.2991,"la2":30.254,"lo1":-89.0895,"lo2":-89.0444,"dy":0.0017,"dx":0.0017,"nx":28,"ny":28,"refTime":"2024-05-06T21:00:00:Z","depth":"2","parameterNumber":2,"parameterNumberName":"U-component_of_CURRENTS"},"data":[0,0,0,0,0,0,0,0,0,0,0,0,0,0,0,0,0,0,0,0,0,0,0,0,0,0,0,0,0,0,0,0,0,0,0,0,0,0,0,0,0,0,0,0,0,0,0,0,0,0,0,0,0,0,0,0,0,0,0.2343,0.2343,0,0.2334,0.2334,0.2333,0.2316,0.2316,0.2316,0.2316,0.2303,0.2303,0.2303,0,0,0,0,0,0,0,0,0,0,0,0,0,0.2359,0.2359,0.2343,0.2343,0.2343,0.2334,0.2334,0.2333,0.2316,0.2316,0.2316,0.2316,0.2303,0.2303,0.2303,0,0,0,0,0,0,0,0,0,0,0,0,0,0.2349,0.2359,0.2343,0.2335,0.2335,0.2334,0.2334,0.2333,0.2316,0.2316,0.2316,0.2316,0.2303,0.2303,0.2303,0.2305,0,0,0.2302,0.2302,0,0,0,0,0,0,0,0,0.235,0.2348,0.2336,0.2336,0.2335,0.2328,0.2335,0.2324,0.2316,0.2321,0.2316,0.2316,0.2313,0.2312,0.2307,0.2304,0.2304,0.2302,0.2302,0.2301,0.2301,0,0,0,0,0,0,0,0.235,0.2349,0.2337,0.2337,0.2336,0.2337,0.2335,0.2333,0.2316,0.2321,0.232,0.2322,0.2312,0.2308,0.2307,0.2303,0.2302,0.2301,0.2301,0.2301,0.2346,0.2348,0,0,0,0,0,0,0.2355,0.2349,0.2338,0.2337,0.2345,0.2337,0.2334,0.2329,0.2317,0.2315,0.2323,0.2322,0.2308,0.2307,0.2306,0.2339,0.2301,0.2301,0.2301,0.2345,0.2347,0.2348,0,0,0,0,0,0,0.2356,0.2354,0.2338,0.2345,0.2344,0.2337,0.233,0.2329,0.2333,0.2318,0.2316,0.233,0.2308,0.2307,0.2318,0.2337,0.2301,0.2301,0.2343,0.2346,0.2348,0.2384,0,0,0,0,0,0,0.2356,0.2354,0.2356,0.2345,0.2343,0.2347,0.2331,0.2329,0.2335,0.2334,0.2324,0.2322,0.2308,0.2318,0.2317,0.2336,0.23,0.2342,0.2344,0.2347,0.2381,0.2387,0.2392,0,0,0,0,0,0.2356,0.2358,0.2356,0.2355,0.2345,0.2348,0.2348,0.2341,0.2336,0.2342,0.2338,0.2323,0.2335,0.2319,0.2318,0.2336,0.234,0.2344,0.2347,0.2378,0.2386,0.2392,0,0,0,0,0,0,0.2366,0.2356,0.2354,0.2353,0.2357,0.2346,0.2352,0.2349,0.235,0.235,0.2335,0.2333,0.2354,0.2343,0.2327,0.236,0.2337,0.234,0.2362,0.2369,0.2374,0.2388,0.23,0,0,0,0,0,0.237,0.2368,0.2364,0.2366,0.2368,0.2363,0.2365,0.2363,0.2361,0.2361,0.2355,0.2355,0.2365,0.2365,0.237,0.2381,0.2386,0.2396,0.2402,0.2406,0.2418,0.2449,0.2458,0.2359,0.2359,0.2359,0,0,0.2373,0.237,0.2368,0.2369,0.2368,0.2375,0.2363,0.2371,0.2379,0.236,0.237,0.2376,0.2375,0.2392,0.2401,0.2384,0.2437,0.241,0.2414,0.2424,0.2453,0.2463,0.2471,0.2361,0.236,0.236,0,0,0.2381,0.2378,0.238,0.2386,0.2393,0.2391,0.2398,0.2396,0.2399,0.2412,0.2408,0.2429,0.2428,0.2437,0.2441,0.2483,0.247,0.2483,0.2514,0.2543,0.2551,0.2559,0.2573,0.2581,0.248,0.248,0.248,0,0.2389,0.2382,0.2385,0.2394,0.2396,0.2401,0.2407,0.2416,0.242,0.2432,0.2421,0.2456,0.2453,0.2487,0.2502,0.2496,0.2504,0.2484,0.255,0.2557,0.2564,0.2577,0.2586,0.2482,0.2481,0.2481,0.2481,0,0.2394,0.2396,0.24,0.2407,0.2418,0.2422,0.2436,0.2452,0.2457,0.2468,0.2506,0.251,0.2533,0.2537,0.253,0.2582,0.2569,0.2557,0.253,0.2576,0.2587,0.2595,0.2485,0.2484,0.2483,0.2483,0,0,0.2384,0.2397,0.2399,0.24,0.242,0.2425,0.2456,0.2479,0.2505,0.2524,0.2555,0.2586,0.2601,0.2608,0.2608,0.2631,0.2683,0.2616,0.2616,0.2625,0.2741,0.2681,0.2684,0.268,0.2682,0.2683,0.2726,0,0.2381,0.2389,0.2401,0.2412,0.2412,0.2436,0.2462,0.2496,0.2524,0.2561,0.2592,0.2624,0.2623,0.2636,0.2667,0.2684,0.2708,0.2672,0.27,0.2701,0.2638,0.2694,0.2451,0.2465,0.2734,0.2736,0.2737,0,0.2373,0.2377,0.2381,0.2401,0.2405,0.2423,0.2466,0.2494,0.2563,0.259,0.2646,0.2667,0.2724,0.2704,0.2772,0.2749,0.2756,0.2761,0.2762,0.2702,0.2657,0.2464,0.247,0.2751,0.275,0.2749,0.2748,0,0.2341,0.236,0.2357,0.2363,0.2394,0.2413,0.244,0.2506,0.2538,0.262,0.2651,0.2721,0.2754,0.279,0.2815,0.2797,0.2874,0.2846,0.28,0.2795,0.2592,0.2566,0.2894,0.2894,0.2894,0.2893,0.2893,0,0.2316,0.2314,0.2344,0.2341,0.2355,0.2395,0.2431,0.2479,0.2553,0.2594,0.2667,0.2708,0.2779,0.2824,0.2838,0.2853,0.2899,0.2822,0.2811,0.2597,0.2573,0.2822,0.2813,0.2895,0.2895,0.2894,0.2894,0,0.2274,0.229,0.2289,0.2323,0.2337,0.2352,0.2417,0.2445,0.2529,0.2585,0.2611,0.2717,0.2784,0.2837,0.2896,0.2875,0.2894,0.2881,0.2624,0.2582,0.2786,0.2778,0.2836,0.2835,0.2833,0.2832,0.2831,0,0.2248,0.2241,0.2269,0.2269,0.2283,0.2316,0.2337,0.2425,0.2457,0.2579,0.2593,0.2694,0.2733,0.2812,0.28,0.2814,0.2882,0.2591,0.2518,0.2802,0.2785,0.2779,0.2774,0.2258,0.2252,0.2248,0.2244,0,0.2198,0.2209,0.221,0.2214,0.2229,0.2244,0.2283,0.2307,0.2404,0.245,0.2516,0.2561,0.2641,0.2554,0.2587,0.2562,0.2571,0.25,0.2866,0.2318,0.2262,0.2244,0.2256,0.2204,0.2208,0.2211,0.2213,0.2215,0.2159,0.2147,0.215,0.2142,0.2156,0.2153,0.2136,0.2183,0.2216,0.2252,0.2368,0.2353,0.2379,0.2313,0.2243,0.2191,0.2378,0.2253,0.2265,0.2282,0.2215,0.2161,0.207,0.2073,0.2076,0.2078,0.208,0,0.2093,0.2084,0.2075,0.2053,0.2022,0.2066,0.2073,0.2035,0.2021,0.2083,0.2112,0.1945,0.188,0.1913,0.1764,0.1764,0.1722,0.169,0.1605,0.1647,0.1684,0.1584,0.1273,0.1271,0.1268,0.1266,0,0,0.206,0.2018,0.2003,0.192,0.1903,0.1838,0.1821,0.1788,0.1795,0.1749,0.1713,0.1834,0.1871,0.1563,0.1513,0.1365,0.1498,0.1308,0.1958,0.1901,0.1935,0.2014,0.1909,0,0,0,0,0]},{"header":{"parameterUnit":"m.s-1","parameterCategory":2,"la1":30.2991,"la2":30.254,"lo1":-89.0895,"lo2":-89.0444,"dy":0.0017,"dx":0.0017,"nx":28,"ny":28,"refTime":"2024-05-06T21:00:00:Z","depth":"2","parameterNumber":3,"parameterNumberName":"V-component_of_CURRENTS"},"data":[0,0,0,0,0,0,0,0,0,0,0,0,0,0,0,0,0,0,0,0,0,0,0,0,0,0,0,0,0,0,0,0,0,0,0,0,0,0,0,0,0,0,0,0,0,0,0,0,0,0,0,0,0,0,0,0,0,0,0.0286,0.0285,0,0.0259,0.0259,0.0258,0.0241,0.0241,0.0241,0.0241,0.0191,0.019,0.0188,0,0,0,0,0,0,0,0,0,0,0,0,0,0.0274,0.0275,0.0286,0.0285,0.0285,0.0259,0.0259,0.0258,0.0241,0.0241,0.0241,0.0241,0.0191,0.019,0.0188,0,0,0,0,0,0,0,0,0,0,0,0,0,0.0266,0.0275,0.0286,0.0274,0.0273,0.0259,0.0259,0.0258,0.0241,0.0241,0.0241,0.0241,0.0192,0.019,0.0188,0.0178,0,0,0.0182,0.0181,0,0,0,0,0,0,0,0,0.0267,0.0267,0.0276,0.0275,0.0273,0.0254,0.0236,0.023,0.0241,0.0252,0.0241,0.0241,0.021,0.0207,0.0201,0.0176,0.0173,0.0182,0.0181,0.018,0.018,0,0,0,0,0,0,0,0.0267,0.0267,0.0274,0.0276,0.0274,0.0254,0.0253,0.0235,0.0231,0.0251,0.025,0.0248,0.0209,0.0203,0.02,0.0173,0.0182,0.018,0.0179,0.0179,0.0149,0.015,0,0,0,0,0,0,0.0275,0.0268,0.0275,0.0274,0.027,0.0254,0.0253,0.026,0.0232,0.0228,0.0248,0.0247,0.0207,0.0202,0.0198,0.0203,0.018,0.0178,0.0177,0.0149,0.0149,0.015,0,0,0,0,0,0,0.0275,0.0276,0.0276,0.027,0.0269,0.0255,0.0262,0.0259,0.0257,0.023,0.0225,0.0249,0.0206,0.0201,0.0193,0.02,0.0177,0.0176,0.0148,0.0149,0.0149,0.0201,0,0,0,0,0,0,0.0275,0.0276,0.0283,0.0271,0.027,0.0276,0.0262,0.0259,0.0256,0.0255,0.0229,0.0224,0.0206,0.0196,0.0191,0.0197,0.0174,0.0148,0.0149,0.0149,0.0199,0.0203,0.0207,0,0,0,0,0,0.0275,0.0286,0.0283,0.0284,0.0279,0.0276,0.0274,0.0262,0.0256,0.0259,0.0245,0.0225,0.0196,0.0195,0.0189,0.0195,0.0148,0.0148,0.0149,0.0197,0.0203,0.0207,0,0,0,0,0,0,0.0281,0.0285,0.0282,0.0293,0.0288,0.0273,0.0274,0.0266,0.0257,0.0257,0.0231,0.0225,0.0219,0.0201,0.0199,0.0188,0.0168,0.0168,0.0207,0.0211,0.0215,0.0231,0.0173,0,0,0,0,0,0.0287,0.0299,0.0294,0.0302,0.0302,0.0289,0.0286,0.028,0.027,0.0266,0.0248,0.023,0.0217,0.021,0.0192,0.0189,0.0168,0.0188,0.0192,0.0196,0.0204,0.0181,0.0184,0.0152,0.0152,0.0152,0,0,0.029,0.0295,0.03,0.0305,0.0299,0.0308,0.0287,0.0288,0.0295,0.0261,0.0263,0.0242,0.0218,0.0214,0.0209,0.0201,0.0193,0.0197,0.02,0.0207,0.0182,0.0185,0.0188,0.0153,0.0153,0.0153,0,0,0.0306,0.031,0.0326,0.0327,0.0327,0.0322,0.0326,0.0316,0.0311,0.0309,0.0288,0.0276,0.0252,0.0241,0.0231,0.0247,0.0213,0.0238,0.0274,0.0252,0.0254,0.0256,0.0232,0.0231,0.0243,0.0243,0.0243,0,0.031,0.0333,0.0327,0.0343,0.035,0.0333,0.0351,0.0344,0.0333,0.0335,0.0317,0.0291,0.0267,0.0268,0.0274,0.0257,0.0238,0.0259,0.0258,0.0259,0.026,0.0235,0.0233,0.0246,0.0245,0.0245,0.0245,0,0.0339,0.0357,0.0366,0.0386,0.039,0.0403,0.0398,0.0397,0.0388,0.0384,0.0378,0.0343,0.0332,0.0318,0.0301,0.0301,0.0282,0.0263,0.0247,0.0267,0.0238,0.0236,0.0249,0.0248,0.0248,0.0247,0,0,0.0355,0.0383,0.0388,0.0408,0.0418,0.0428,0.0438,0.0449,0.047,0.0441,0.0455,0.0424,0.0407,0.0395,0.0365,0.0345,0.0331,0.0314,0.0311,0.0294,0.028,0.0274,0.0271,0.0312,0.0312,0.0312,0.0256,0,0.0382,0.0426,0.043,0.0472,0.0495,0.0487,0.0504,0.051,0.051,0.0517,0.0478,0.048,0.0436,0.0433,0.0405,0.0354,0.0328,0.0348,0.026,0.0258,0.0254,0.0269,0.029,0.0244,0.0254,0.0253,0.0253,0,0.0414,0.0443,0.0488,0.0527,0.0537,0.0557,0.0591,0.0606,0.0609,0.0608,0.0596,0.0565,0.0536,0.0489,0.0411,0.0426,0.036,0.0311,0.0307,0.0284,0.0248,0.0226,0.0239,0.0249,0.0249,0.0249,0.025,0,0.0441,0.0485,0.0527,0.0539,0.0576,0.0595,0.0617,0.0637,0.0667,0.0671,0.0685,0.064,0.0624,0.0536,0.0437,0.0423,0.0343,0.0309,0.0238,0.0236,0.0229,0.0227,0.0246,0.0246,0.0246,0.0247,0.0247,0,0.0476,0.051,0.0545,0.0569,0.0626,0.0637,0.07,0.0713,0.0744,0.0796,0.074,0.0757,0.0635,0.0571,0.0463,0.0354,0.0362,0.0251,0.0226,0.0247,0.0248,0.0232,0.0231,0.0244,0.0245,0.0245,0.0246,0,0.0502,0.0522,0.0574,0.0621,0.0641,0.0685,0.0757,0.0805,0.0825,0.0884,0.0886,0.0849,0.0776,0.0644,0.051,0.0404,0.0289,0.0243,0.0278,0.0258,0.0186,0.0188,0.0156,0.0155,0.0155,0.0154,0.0154,0,0.052,0.0548,0.0613,0.0653,0.0678,0.0746,0.0798,0.0843,0.0903,0.0947,0.0979,0.0926,0.0907,0.0707,0.0526,0.0343,0.0299,0.0218,0.0194,0.02,0.0178,0.0181,0.0184,0.0199,0.0199,0.0199,0.0199,0,0.0551,0.0572,0.0616,0.0696,0.0758,0.0836,0.0916,0.0971,0.1033,0.1085,0.1139,0.1124,0.0954,0.0788,0.0536,0.0401,0.025,0.0213,0.0214,0.0224,0.0237,0.0217,0.0219,0.0199,0.0199,0.0199,0.0199,0.0199,0.0573,0.0609,0.0666,0.0745,0.082,0.0916,0.0983,0.1071,0.117,0.1249,0.1248,0.123,0.1037,0.0727,0.0504,0.0262,0.0278,0.0168,0.0169,0.0169,0.019,0.0202,0.0161,0.0161,0.0161,0.016,0.016,0,0.0599,0.0643,0.0712,0.0805,0.0887,0.0927,0.1054,0.1122,0.1238,0.1316,0.1365,0.117,0.0989,0.0749,0.0415,0.0212,0.0185,0.0116,0.0135,0.0138,0.0139,0.0158,0.0121,0.012,0.0119,0.0118,0,0,0.0613,0.0672,0.0708,0.0838,0.091,0.1021,0.1094,0.1195,0.1276,0.1345,0.1345,0.1338,0.1066,0.0802,0.0533,0.0333,0.0272,0.0276,0.0335,0.0395,0.0398,0.0201,0.0237,0,0,0,0,0]}],[{"header":{"parameterUnit":"m.s-1","parameterCategory":2,"la1":30.2991,"la2":30.254,"lo1":-89.0895,"lo2":-89.0444,"dy":0.0017,"dx":0.0017,"nx":28,"ny":28,"refTime":"2024-05-06T21:00:00:Z","depth":"4","parameterNumber":2,"parameterNumberName":"U-component_of_CURRENTS"},"data":[0,0,0,0,0,0,0,0,0,0,0,0,0,0,0,0,0,0,0,0,0,0,0,0,0,0,0,0,0,0,0,0,0,0,0,0,0,0,0,0,0,0,0,0,0,0,0,0,0,0,0,0,0,0,0,0,0,0,0.158,0.158,0,0.1608,0.1608,0.1608,0.1641,0.1642,0.1643,0.1644,0.1681,0.1682,0.1682,0,0,0,0,0,0,0,0,0,0,0,0,0,0.1536,0.1536,0.158,0.1581,0.1581,0.1608,0.1608,0.1608,0.1641,0.1642,0.1643,0.1644,0.1681,0.1682,0.1682,0,0,0,0,0,0,0,0,0,0,0,0,0,0.1556,0.1536,0.158,0.1603,0.1605,0.1608,0.1608,0.1608,0.1641,0.1642,0.1643,0.1644,0.1681,0.1682,0.1682,0.1663,0,0,0.1684,0.1684,0,0,0,0,0,0,0,0,0.1555,0.1557,0.1599,0.1601,0.1604,0.1625,0.1606,0.1628,0.1641,0.1625,0.1644,0.1645,0.1664,0.1666,0.1665,0.1664,0.1666,0.1684,0.1684,0.1684,0.1684,0,0,0,0,0,0,0,0.1553,0.1556,0.1588,0.1599,0.1603,0.1605,0.1609,0.161,0.1636,0.1626,0.1629,0.1636,0.1666,0.1664,0.1666,0.1667,0.1684,0.1684,0.1684,0.1684,0.1754,0.1756,0,0,0,0,0,0,0.1555,0.1555,0.1588,0.159,0.1585,0.1605,0.161,0.1615,0.1636,0.1641,0.1635,0.1638,0.1663,0.1666,0.1668,0.1733,0.1684,0.1685,0.1685,0.1753,0.1754,0.1756,0,0,0,0,0,0,0.1554,0.1557,0.1586,0.1575,0.1579,0.1605,0.161,0.1615,0.1649,0.1643,0.1648,0.1669,0.1664,0.1667,0.1702,0.1732,0.1685,0.1685,0.1751,0.1753,0.1755,0.1808,0,0,0,0,0,0,0.1552,0.1557,0.1576,0.1575,0.158,0.1611,0.161,0.1615,0.165,0.1655,0.1673,0.1676,0.1665,0.1701,0.1702,0.1732,0.1686,0.1749,0.1752,0.1755,0.1804,0.1812,0.1818,0,0,0,0,0,0.155,0.1565,0.1577,0.1582,0.1601,0.1612,0.1615,0.1635,0.1651,0.1669,0.1687,0.1677,0.1721,0.1703,0.1704,0.1734,0.1747,0.1751,0.1754,0.1801,0.1811,0.1818,0,0,0,0,0,0,0.1555,0.157,0.1583,0.1603,0.162,0.1619,0.1642,0.1654,0.1681,0.1697,0.1692,0.1696,0.1739,0.173,0.1711,0.1764,0.1734,0.1738,0.177,0.1778,0.1785,0.1793,0.1686,0,0,0,0,0,0.1565,0.1585,0.1595,0.1616,0.1628,0.1643,0.1657,0.1671,0.1687,0.1701,0.1715,0.1732,0.1747,0.176,0.177,0.1794,0.1792,0.1817,0.1824,0.183,0.1838,0.1864,0.1873,0.1768,0.1768,0.1768,0,0,0.1572,0.1585,0.1598,0.162,0.1636,0.1653,0.1655,0.1686,0.1708,0.17,0.1746,0.1759,0.1761,0.1793,0.1811,0.1793,0.186,0.1835,0.1839,0.1845,0.1868,0.1878,0.1887,0.177,0.177,0.1769,0,0,0.1585,0.1611,0.163,0.1648,0.168,0.1685,0.1704,0.1725,0.1748,0.1784,0.179,0.1826,0.1845,0.1854,0.1859,0.1911,0.1898,0.192,0.1958,0.1983,0.1992,0.1999,0.2009,0.2017,0.192,0.1921,0.1921,0,0.1599,0.1617,0.1638,0.166,0.1678,0.1705,0.1724,0.1747,0.1781,0.1804,0.1811,0.1866,0.1872,0.1908,0.1931,0.1927,0.1935,0.1923,0.1992,0.1999,0.2006,0.2014,0.2022,0.1924,0.1923,0.1923,0.1923,0,0.1612,0.1642,0.1656,0.1691,0.1715,0.1738,0.1767,0.1805,0.1838,0.1858,0.1919,0.1932,0.1966,0.1976,0.197,0.2026,0.2014,0.1999,0.1967,0.202,0.2025,0.2032,0.1928,0.1927,0.1926,0.1925,0,0,0.1596,0.1652,0.1662,0.1684,0.1733,0.1747,0.1799,0.184,0.188,0.1927,0.1974,0.2016,0.2041,0.2049,0.2054,0.2077,0.2133,0.2066,0.2066,0.2071,0.2186,0.2039,0.2032,0.2133,0.2135,0.2136,0.2169,0,0.16,0.164,0.1669,0.1713,0.1732,0.1779,0.1818,0.1869,0.1916,0.1971,0.201,0.2058,0.2062,0.2089,0.2119,0.2132,0.2157,0.2126,0.2138,0.2139,0.1998,0.2037,0.2142,0.2174,0.2176,0.2177,0.2178,0,0.1594,0.1623,0.1665,0.1722,0.1737,0.1774,0.1847,0.1888,0.1971,0.2012,0.2078,0.2107,0.2169,0.2155,0.2217,0.22,0.2206,0.2207,0.2208,0.2057,0.2005,0.2112,0.2191,0.219,0.2189,0.2188,0.2187,0,0.1554,0.1616,0.1649,0.1669,0.174,0.1781,0.1828,0.1912,0.1955,0.2052,0.2092,0.2165,0.2208,0.2238,0.2258,0.2248,0.2305,0.2283,0.2154,0.2144,0.2243,0.2235,0.2322,0.2322,0.2322,0.2322,0.2322,0,0.1523,0.1555,0.1642,0.166,0.171,0.1773,0.1841,0.1902,0.199,0.2035,0.212,0.2154,0.2234,0.227,0.2279,0.2237,0.2326,0.2166,0.2144,0.2264,0.2258,0.2248,0.2239,0.2323,0.2323,0.2322,0.2322,0,0.1469,0.1525,0.157,0.166,0.1694,0.1738,0.1843,0.1882,0.1982,0.2043,0.2076,0.2171,0.2215,0.2264,0.2309,0.2243,0.2227,0.219,0.232,0.2304,0.2045,0.2039,0.2042,0.2037,0.2033,0.2029,0.2026,0,0.1438,0.1459,0.1565,0.1595,0.1643,0.172,0.1763,0.1872,0.1907,0.2028,0.2035,0.2122,0.2168,0.211,0.2183,0.2178,0.2154,0.2122,0.2079,0.2039,0.2018,0.2018,0.2017,0.202,0.2019,0.2018,0.2017,0,0.138,0.1437,0.1476,0.1541,0.1598,0.1644,0.1715,0.1728,0.1835,0.1939,0.1937,0.1947,0.1989,0.2015,0.2025,0.2022,0.2127,0.2078,0.2086,0.2045,0.2012,0.1995,0.2,0.2002,0.2004,0.2006,0.2006,0,0.1346,0.1361,0.1425,0.1464,0.153,0.154,0.1592,0.1615,0.1661,0.178,0.1779,0.1869,0.1966,0.1935,0.1949,0.1929,0.1896,0.1817,0.1838,0.1855,0.1778,0.1708,0.1587,0,0,0,0,0,0.1299,0.1301,0.1335,0.1367,0.1423,0.146,0.1538,0.1588,0.1688,0.1635,0.1697,0.1722,0.1728,0.1784,0.1727,0.1881,0.1917,0.1805,0.1841,0.1922,0.1939,0.1866,0,0,0,0,0,0,0.1268,0.1302,0.1303,0.1274,0.1275,0.1321,0.1368,0.1437,0.141,0.1518,0.1535,0.1609,0.1654,0.1743,0.1693,0.1708,0.169,0.1867,0.1862,0.1913,0.1928,0.1942,0.1872,0,0,0,0,0]},{"header":{"parameterUnit":"m.s-1","parameterCategory":2,"la1":30.2991,"la2":30.254,"lo1":-89.0895,"lo2":-89.0444,"dy":0.0017,"dx":0.0017,"nx":28,"ny":28,"refTime":"2024-05-06T21:00:00:Z","depth":"4","parameterNumber":3,"parameterNumberName":"V-component_of_CURRENTS"},"data":[0,0,0,0,0,0,0,0,0,0,0,0,0,0,0,0,0,0,0,0,0,0,0,0,0,0,0,0,0,0,0,0,0,0,0,0,0,0,0,0,0,0,0,0,0,0,0,0,0,0,0,0,0,0,0,0,0,0,0.0191,0.0191,0,0.0178,0.0177,0.0177,0.0172,0.0172,0.0172,0.0172,0.0144,0.0143,0.0142,0,0,0,0,0,0,0,0,0,0,0,0,0,0.0174,0.0175,0.0191,0.0191,0.0191,0.0178,0.0177,0.0177,0.0172,0.0172,0.0172,0.0172,0.0144,0.0143,0.0142,0,0,0,0,0,0,0,0,0,0,0,0,0,0.0173,0.0175,0.0191,0.0187,0.0186,0.0178,0.0177,0.0177,0.0172,0.0172,0.0172,0.0172,0.0144,0.0143,0.0142,0.0132,0,0,0.0138,0.0137,0,0,0,0,0,0,0,0,0.0173,0.0174,0.0187,0.0187,0.0186,0.0177,0.0161,0.0162,0.0172,0.0177,0.0172,0.0172,0.0153,0.0151,0.0148,0.0131,0.013,0.0138,0.0137,0.0137,0.0136,0,0,0,0,0,0,0,0.0173,0.0174,0.0185,0.0187,0.0187,0.0173,0.0173,0.0161,0.0164,0.0176,0.0176,0.0175,0.0153,0.015,0.0148,0.0129,0.0138,0.0137,0.0136,0.0136,0.0118,0.0118,0,0,0,0,0,0,0.0178,0.0174,0.0186,0.0185,0.018,0.0173,0.0173,0.0179,0.0164,0.0163,0.0175,0.0175,0.0152,0.0149,0.0147,0.0154,0.0137,0.0135,0.0135,0.0117,0.0118,0.0118,0,0,0,0,0,0,0.0178,0.0179,0.0186,0.0179,0.0179,0.0174,0.018,0.0179,0.0181,0.0164,0.0162,0.0179,0.0152,0.0148,0.0146,0.0153,0.0135,0.0134,0.0117,0.0117,0.0118,0.0157,0,0,0,0,0,0,0.0177,0.018,0.0186,0.018,0.018,0.0188,0.018,0.0179,0.0181,0.018,0.0166,0.0164,0.0151,0.0148,0.0145,0.0151,0.0133,0.0117,0.0117,0.0118,0.0156,0.0159,0.0162,0,0,0,0,0,0.0177,0.0186,0.0186,0.0188,0.0189,0.0188,0.0187,0.0182,0.0181,0.0184,0.0177,0.0164,0.0148,0.0147,0.0143,0.0149,0.0117,0.0117,0.0118,0.0154,0.0158,0.0162,0,0,0,0,0,0,0.018,0.0187,0.0186,0.0197,0.0195,0.0187,0.019,0.0187,0.0184,0.0186,0.0169,0.0166,0.0164,0.0151,0.015,0.0145,0.013,0.0129,0.0159,0.0162,0.0165,0.0177,0.0132,0,0,0,0,0,0.0184,0.0196,0.0195,0.0203,0.0204,0.0198,0.0198,0.0196,0.0192,0.0191,0.0181,0.0171,0.0162,0.0159,0.0148,0.0146,0.0128,0.0147,0.015,0.0152,0.0159,0.0137,0.0139,0.012,0.012,0.012,0,0,0.0186,0.0192,0.0198,0.0205,0.0203,0.0212,0.0198,0.0203,0.021,0.0188,0.0194,0.018,0.0164,0.0163,0.0161,0.0155,0.0147,0.0153,0.0156,0.0161,0.0138,0.014,0.0141,0.012,0.012,0.012,0,0,0.0197,0.0203,0.0217,0.022,0.0225,0.0223,0.0227,0.0224,0.0224,0.0226,0.0213,0.0206,0.0192,0.0184,0.0177,0.019,0.0163,0.0184,0.0212,0.019,0.0191,0.0192,0.0169,0.0168,0.0187,0.0187,0.0188,0,0.0199,0.022,0.0219,0.0232,0.024,0.0232,0.0248,0.0245,0.0242,0.0246,0.0234,0.0219,0.0202,0.0204,0.021,0.0197,0.018,0.02,0.0194,0.0195,0.0195,0.0171,0.0169,0.0189,0.0189,0.0189,0.0189,0,0.0221,0.0238,0.0246,0.0265,0.0271,0.0284,0.0284,0.0287,0.0284,0.0284,0.0282,0.0258,0.0252,0.0241,0.023,0.0229,0.0213,0.0199,0.0186,0.02,0.0173,0.017,0.0192,0.0192,0.0191,0.019,0,0,0.0229,0.0257,0.0261,0.028,0.0293,0.0303,0.0314,0.0327,0.0345,0.0327,0.034,0.0319,0.0308,0.03,0.0279,0.026,0.0244,0.0236,0.0234,0.0216,0.0195,0.0183,0.0179,0.0229,0.0228,0.0228,0.0174,0,0.0248,0.0285,0.0292,0.0328,0.0348,0.0348,0.0364,0.0374,0.0377,0.0385,0.0356,0.0361,0.033,0.033,0.0305,0.0263,0.0239,0.026,0.0182,0.018,0.0171,0.0176,0.0228,0.0172,0.0171,0.0171,0.017,0,0.027,0.0295,0.0333,0.0371,0.038,0.04,0.0432,0.0448,0.0454,0.0455,0.0448,0.0426,0.0403,0.0368,0.0301,0.0316,0.0262,0.022,0.0217,0.0192,0.0164,0.0156,0.0165,0.0165,0.0166,0.0166,0.0167,0,0.0284,0.0325,0.0361,0.0374,0.041,0.043,0.0452,0.0473,0.0499,0.0506,0.0519,0.0482,0.0469,0.0397,0.0314,0.0308,0.023,0.0208,0.0142,0.0141,0.0149,0.0149,0.0152,0.0153,0.0153,0.0153,0.0153,0,0.0306,0.0336,0.0375,0.0395,0.0446,0.0462,0.0517,0.0531,0.0559,0.0599,0.0563,0.057,0.0476,0.0419,0.0331,0.0235,0.0242,0.015,0.0128,0.0166,0.0168,0.0147,0.0147,0.0151,0.0151,0.0152,0.0152,0,0.0319,0.0341,0.0387,0.0434,0.0456,0.0495,0.0564,0.0603,0.0626,0.0669,0.0673,0.064,0.0571,0.0466,0.035,0.0267,0.0167,0.0127,0.0181,0.0162,0.0085,0.0088,0.0049,0.0048,0.0047,0.0047,0.0046,0,0.0329,0.0352,0.0417,0.0453,0.048,0.0543,0.0589,0.0633,0.0678,0.0712,0.073,0.0681,0.0641,0.0476,0.0358,0.0189,0.0158,0.0097,0.0084,0.0093,0.0075,0.0079,0.0083,0.0045,0.0045,0.0045,0.0045,0,0.0345,0.0368,0.0408,0.0479,0.0536,0.0604,0.0673,0.0707,0.0758,0.0777,0.0779,0.0696,0.0617,0.0482,0.0354,0.0229,0.0133,0.009,0.009,0.0077,0.0088,0.0072,0.0076,0.0042,0.0043,0.0043,0.0043,0,0.0358,0.0386,0.0436,0.0503,0.0576,0.0644,0.0681,0.0733,0.0775,0.0807,0.0806,0.0722,0.068,0.0502,0.0385,0.0264,0.0221,0.0162,0.0158,0.0159,0.0202,0.0233,0.0217,0,0,0,0,0,0.0368,0.0399,0.0456,0.0527,0.06,0.0643,0.0727,0.0759,0.0804,0.0811,0.0812,0.0739,0.0575,0.051,0.0387,0.0352,0.0188,0.02,0.0115,0.0029,0.0032,0.0062,0,0,0,0,0,0,0.0373,0.0423,0.0451,0.0536,0.0586,0.0667,0.0721,0.0753,0.0761,0.0787,0.071,0.0684,0.0532,0.0644,0.0377,0.0342,0.0264,0.0133,0.0129,0.0028,0.003,0.0032,0.0065,0,0,0,0,0]}]]